Location: Invercargill
(46.4000°S, 168.3500°E)
Time: 16:19:19
(UTC+13:00)

ISS - Visible Passes

Search period start: 05 October 2023 00:00
Search period end: 15 October 2023 00:00
Orbit: 413 x 421 km, 51.6° (Epoch: 04 October)

Date Brightness Start Highest point End Pass type
(mag) Time Alt. Az. Time Alt. Az. Time Alt. Az.
05 Oct -2.0 04:40:53 32° SSE 04:40:53 32° SSE 04:43:40 10° ESE visible
05 Oct -3.1 06:14:17 10° WSW 06:17:43 55° SSE 06:21:06 10° E visible
06 Oct -0.6 03:54:33 15° SE 03:54:33 15° SE 03:55:21 10° ESE visible
06 Oct -2.7 05:27:28 21° SW 05:29:26 43° SSE 05:32:45 10° E visible
07 Oct -2.3 04:41:11 37° SSE 04:41:11 37° SSE 04:44:20 10° E visible
07 Oct -3.8 06:14:37 10° WSW 06:18:05 77° NNW 06:21:31 10° ENE visible
08 Oct -0.7 03:54:58 16° ESE 03:54:58 16° ESE 03:55:53 10° ESE visible
08 Oct -3.6 05:27:54 24° WSW 05:29:49 74° SSE 05:33:15 10° ENE visible
09 Oct -2.9 04:41:48 51° SE 04:41:48 51° SE 04:44:50 10° E visible
09 Oct -2.9 06:14:58 10° WSW 06:18:08 33° NW 06:21:15 10° NNE visible
10 Oct -0.7 03:55:54 13° E 03:55:54 13° E 03:56:20 10° E visible
10 Oct -3.6 05:28:51 36° W 05:29:53 52° NNW 05:33:13 10° NE visible
11 Oct -2.1 04:43:13 28° NE 04:43:13 28° NE 04:44:58 10° ENE visible
11 Oct -1.9 06:16:12 11° WNW 06:17:50 14° NW 06:19:46 10° NNW visible
12 Oct -1.9 05:30:56 18° N 05:30:56 18° N 05:32:22 10° NNE visible
13 Oct -2.1 21:22:50 10° N 21:24:41 18° NNE 21:24:41 18° NNE visible
14 Oct -3.5 22:09:48 10° NW 22:12:39 55° NNW 22:12:39 55° NNW visible
